Latest Coastal Weather Observations for King Island Airport

IDT60701

Issued at 12:02 am EDT Wednesday 29 January 2020 (issued every 10 minutes, with the page automatically refreshed every 10 minutes)

About coastal observations | Map of coastal stations | Coastal observations for TAS | Marine services | Other Formats
Station Details ID: 098017 Name: KING ISLAND AIRPORT Lat: -39.88 Lon: 143.89 Height: 35.42 m
Data from the previous 72 hours. | See also: Recent months at King Island Airport
Date/Time
EDT
Wind Sea
Height
m
Swell Vis
km
Cloud Weather Temp
°C
Press
hPa
Rain since
9am
mm
Dir  Spd
kts
Gust
kts
Height
m
Period
s
Dir
29/12:00am W 8 11 - - - - 10 Cloudy - 16.7 1016.4 0.0
 
Date/Time
EDT
Wind Sea
Height
m
Swell Vis
km
Cloud Weather Temp
°C
Press
hPa
Rain since
9am
mm
Dir  Spd
kts
Gust
kts
Height
m
Period
s
Dir
28/11:30pm W 8 10 - - - - 10 Cloudy - 16.7 1016.5 0.0
28/11:00pm W 9 14 - - - - 10 Cloudy - 16.6 1016.7 0.0
28/10:30pm W 10 14 - - - - 10 Cloudy - 16.6 1016.8 0.0
28/10:00pm WSW 9 12 - - - - 10 Cloudy - 16.7 1016.6 0.0
28/09:30pm W 9 13 - - - - 10 Cloudy - 16.4 1016.3 0.0
28/09:00pm W 10 14 - - - - 10 Cloudy - 16.7 1016.2 0.0
28/08:30pm W 9 14 - - - - 10 Partly cloudy - 16.8 1015.9 0.0
28/08:00pm W 10 13 - - - - 10 Partly cloudy - 17.0 1015.6 0.0
28/07:44pm W 11 14 - - - - 10 Partly cloudy - 17.2 1015.4 0.0
28/07:30pm W 11 14 - - - - 10 Partly cloudy - 17.3 1015.3 0.0
28/07:00pm WNW 13 15 - - - - 10 Partly cloudy - 17.3 1014.8 0.0
28/06:30pm W 10 15 - - - - 10 Partly cloudy - 17.7 1014.9 0.0
28/06:00pm WNW 13 17 - - - - 10 Cloudy - 18.2 1014.9 0.0
28/05:30pm W 14 20 - - - - 10 Partly cloudy - 18.6 1015.0 0.0
28/05:00pm WNW 14 19 - - - - 10 Cloudy - 18.8 1014.8 0.0
28/04:32pm WNW 16 21 - - - - 10 Cloudy - 18.6 1015.0 0.0
28/04:30pm WNW 16 21 - - - - 10 Cloudy - 18.9 1015.0 0.0
28/04:00pm WNW 16 21 - - - - 10 Partly cloudy - 18.8 1015.0 0.0
28/03:30pm W 15 22 - - - - 10 Partly cloudy - 19.3 1015.3 0.0
28/03:00pm WNW 16 21 - - - - 10 Mostly cloudy - 19.3 1015.4 0.0
28/02:30pm WNW 16 20 - - - - 10 Partly cloudy - 19.2 1015.3 0.0
28/02:00pm W 15 19 - - - - 10 Partly cloudy - 19.6 1015.3 0.0
28/01:51pm W 15 21 - - - - 10 Partly cloudy - 19.3 1015.4 0.0
28/01:30pm W 14 19 - - - - 10 Partly cloudy - 18.6 1015.4 0.0
28/01:24pm W 14 19 - - - - 10 Partly cloudy - 18.1 1015.4 0.0
28/01:00pm WNW 15 19 - - - - 10 Partly cloudy - 17.8 1015.4 0.0
28/12:30pm WNW 15 19 - - - - 10 Partly cloudy - 18.5 1015.4 0.0
28/12:00pm WNW 16 19 - - - - 10 Mostly cloudy - 18.9 1015.5 0.0
28/11:30am WNW 15 19 - - - - 10 Partly cloudy - 18.6 1015.4 0.0
28/11:27am WNW 15 19 - - - - 10 Partly cloudy - 18.5 1015.4 0.0
28/11:00am WNW 16 19 - - - - 10 Partly cloudy - 18.9 1015.5 0.0
28/10:30am WNW 14 18 - - - - 10 Partly cloudy - 18.7 1015.3 0.0
28/10:00am WNW 15 18 - - - - 10 Partly cloudy - 17.4 1015.0 0.0
28/09:44am WNW 14 17 - - - - 10 Partly cloudy - 17.5 1015.0 0.0
28/09:34am WNW 15 18 - - - - 10 Partly cloudy - 17.8 1015.0 0.0
28/09:30am WNW 14 18 - - - - 10 Partly cloudy - 17.4 1015.0 0.0
28/09:06am WNW 13 16 - - - - 10 Partly cloudy - 16.7 1014.9 0.0
28/09:00am WNW 13 16 - - - - 10 Partly cloudy - 16.9 1014.8 0.0
28/08:45am WNW 14 16 - - - - 10 Partly cloudy - 16.7 1014.5 0.0
28/08:30am WNW 11 14 - - - - 10 Partly cloudy - 16.5 1014.6 0.0
28/08:27am WNW 11 14 - - - - 10 Partly cloudy - 16.0 1014.6 0.0
28/08:00am WNW 12 15 - - - - 10 Partly cloudy - 16.2 1014.4 0.0
28/07:30am W 11 14 - - - - 10 - - 15.8 1014.4 0.0
28/07:00am WNW 9 13 - - - - 10 - - 14.8 1014.0 0.0
28/06:30am WNW 9 11 - - - - 10 - - 14.7 1014.0 0.0
28/06:00am WNW 8 10 - - - - 10 Mostly cloudy - 14.6 1013.7 0.0
28/05:30am W 8 11 - - - - 10 - - 14.9 1013.9 0.0
28/05:00am WNW 7 9 - - - - 10 - - 14.8 1013.7 0.0
28/04:30am W 8 10 - - - - 10 - - 14.5 1014.1 0.0
28/04:00am W 7 9 - - - - 10 - - 14.2 1014.3 0.0
28/03:30am W 7 9 - - - - 10 Partly cloudy - 14.2 1014.7 0.0
28/03:00am W 7 9 - - - - 10 - - 14.2 1014.8 0.0
28/02:30am W 7 8 - - - - 10 Partly cloudy - 14.1 1015.1 0.0
28/02:00am W 7 9 - - - - 10 - - 14.3 1015.1 0.0
28/01:30am WNW 7 8 - - - - 10 - - 14.1 1015.2 0.0
28/01:00am WNW 6 7 - - - - 10 - - 14.0 1015.3 0.0
28/12:30am W 6 8 - - - - 10 - - 14.3 1015.6 0.0
28/12:00am W 6 7 - - - - 10 Mostly clear - 14.3 1015.6 0.0
 
Date/Time
EDT
Wind Sea
Height
m
Swell Vis
km
Cloud Weather Temp
°C
Press
hPa
Rain since
9am
mm
Dir  Spd
kts
Gust
kts
Height
m
Period
s
Dir
27/11:30pm W 7 8 - - - - 10 Partly cloudy - 14.5 1016.0 0.0
27/11:00pm W 6 8 - - - - 10 Partly cloudy - 14.5 1016.1 0.0
27/10:30pm WNW 7 8 - - - - 10 Partly cloudy - 14.7 1016.1 0.0
27/10:00pm W 6 8 - - - - 10 Partly cloudy - 14.9 1016.0 0.0
27/09:30pm W 6 7 - - - - 10 - - 14.9 1015.9 0.0
27/09:00pm W 7 9 - - - - 10 - - 15.1 1015.7 0.0
27/08:30pm W 7 9 - - - - 10 - - 15.8 1015.5 0.0
27/08:00pm W 9 11 - - - - 10 Partly cloudy - 16.5 1015.1 0.0
27/07:30pm W 10 14 - - - - 10 Partly cloudy - 17.0 1015.0 0.0
27/07:00pm W 11 15 - - - - 10 Partly cloudy - 16.8 1014.9 0.0
27/06:30pm W 11 15 - - - - 10 Partly cloudy - 17.1 1015.0 0.0
27/06:00pm W 11 14 - - - - 10 - - 17.4 1015.0 0.0
27/05:30pm W 13 16 - - - - 10 Partly cloudy - 17.9 1015.0 0.0
27/05:00pm WNW 10 13 - - - - 10 Partly cloudy - 17.9 1015.1 0.0
27/04:30pm WNW 11 15 - - - - 10 Partly cloudy - 18.5 1015.2 0.0
27/04:00pm W 11 15 - - - - 10 Partly cloudy - 18.4 1015.2 0.0
27/03:30pm WNW 11 16 - - - - 10 - - 18.3 1015.3 0.0
27/03:00pm WNW 11 16 - - - - 10 Mostly clear - 17.9 1015.4 0.0
27/02:30pm W 11 15 - - - - 10 Partly cloudy - 17.7 1015.6 0.0
27/02:00pm W 10 15 - - - - 10 Partly cloudy - 17.9 1015.5 0.0
27/01:30pm W 13 16 - - - - 10 Partly cloudy - 17.8 1016.0 0.0
27/01:00pm W 9 14 - - - - 10 Partly cloudy - 17.1 1015.6 0.0
27/12:30pm WNW 10 13 - - - - 10 Partly cloudy - 16.7 1015.8 0.0
27/12:00pm W 9 13 - - - - 10 Cloudy - 17.4 1016.0 0.0
27/11:30am W 8 11 - - - - 10 Partly cloudy - 16.9 1015.4 0.0
27/11:00am WNW 9 12 - - - - 10 Partly cloudy - 16.6 1015.4 0.0
27/10:30am WNW 9 12 - - - - 10 Partly cloudy - 16.2 1015.6 0.0
27/10:00am WNW 10 13 - - - - 10 Partly cloudy - 16.2 1015.9 0.0
27/09:30am WNW 10 12 - - - - 10 - - 16.3 1015.5 0.0
27/09:00am WNW 7 9 - - - - 10 Mostly cloudy - 15.8 1015.1 0.0
27/08:30am W 7 9 - - - - 10 Partly cloudy - 15.2 1015.6 0.0
27/08:00am W 7 10 - - - - 10 Partly cloudy - 15.0 1015.4 0.0
27/07:30am W 8 10 - - - - 10 - - 14.6 1015.0 0.0
27/07:00am W 7 9 - - - - 10 Partly cloudy - 14.4 1014.7 0.0
27/06:30am NW 9 11 - - - - 10 - - 14.2 1014.3 0.0
27/06:00am NW 9 11 - - - - 10 Cloudy - 13.8 1013.8 0.0
27/05:30am WNW 8 10 - - - - 10 - - 13.3 1014.5 0.0
27/05:00am N 2 5 - - - - 10 Partly cloudy - 11.1 1014.3 0.0
27/04:30am ENE 3 4 - - - - 10 Partly cloudy - 10.1 1014.2 0.0
27/04:00am CALM 0 0 - - - - 10 - - 10.3 1014.7 0.0
27/03:30am CALM 0 0 - - - - 10 - - 10.2 1015.0 0.0
27/03:00am E 4 4 - - - - 10 Mostly cloudy - 9.6 1014.8 0.0
27/02:30am E 4 5 - - - - 10 Partly cloudy - 9.2 1015.1 0.0
27/02:00am ESE 4 5 - - - - 10 Partly cloudy - 9.5 1015.1 0.0
27/01:30am ESE 3 4 - - - - 10 - - 10.4 1015.1 0.0
27/01:00am E 4 5 - - - - 10 - - 10.3 1015.2 0.0
27/12:30am CALM 0 0 - - - - 10 - - 10.2 1015.7 0.0
27/12:00am NE 3 3 - - - - 10 Mostly clear - 10.7 1015.6 0.0
 
Date/Time
EDT
Wind Sea
Height
m
Swell Vis
km
Cloud Weather Temp
°C
Press
hPa
Rain since
9am
mm
Dir  Spd
kts
Gust
kts
Height
m
Period
s
Dir
26/11:30pm WNW 1 4 - - - - 10 - - 10.4 1015.7 0.0
26/11:00pm SW 4 6 - - - - 10 - - 12.2 1016.1 0.0
26/10:30pm SW 5 6 - - - - 10 - - 12.5 1016.3 0.0
26/10:00pm WSW 5 6 - - - - 10 - - 13.4 1016.3 0.0
26/09:30pm W 6 8 - - - - 10 - - 13.8 1016.2 0.0
26/09:00pm WSW 6 7 - - - - 10 Partly cloudy - 14.0 1015.6 0.0
26/08:30pm WSW 6 8 - - - - 10 - - 14.8 1015.5 0.0
26/08:00pm WSW 9 13 - - - - 10 - - 15.8 1015.4 0.0
26/07:30pm WSW 11 14 - - - - 10 - - 16.5 1015.1 0.0
26/07:00pm WSW 12 16 - - - - 10 - - 16.4 1014.5 0.0
26/06:30pm WSW 13 16 - - - - 10 - - 16.4 1014.6 0.0
26/06:00pm WSW 14 18 - - - - 10 Cloudy - 16.8 1014.5 0.0
26/05:30pm WSW 13 19 - - - - 10 Partly cloudy - 17.0 1014.2 0.0
26/05:00pm W 12 17 - - - - 10 Partly cloudy - 17.4 1013.9 0.0
26/04:30pm W 15 19 - - - - 10 - - 18.6 1014.0 0.0
26/04:00pm W 14 19 - - - - 10 - - 18.6 1013.8 0.0
26/03:30pm W 16 21 - - - - 10 Partly cloudy - 19.2 1014.1 0.0
26/03:00pm W 13 18 - - - - 10 Mostly cloudy - 18.5 1013.8 0.0
26/02:30pm W 15 22 - - - - 10 Partly cloudy - 18.1 1013.9 0.0
26/02:00pm W 15 20 - - - - 10 Partly cloudy - 18.8 1013.9 0.0
26/01:30pm W 15 19 - - - - 10 Partly cloudy - 17.5 1014.1 0.0
26/01:00pm W 15 20 - - - - 10 Cloudy - 18.6 1013.9 0.0
26/12:30pm W 15 20 - - - - 10 Partly cloudy - 17.5 1013.8 0.0
26/12:00pm WNW 16 21 - - - - 10 Cloudy - 17.8 1013.7 0.0
26/11:30am W 15 20 - - - - 10 Partly cloudy - 18.8 1013.6 0.0
26/11:00am WNW 15 19 - - - - 10 Partly cloudy - 18.5 1013.0 0.0
26/10:30am W 13 17 - - - - 10 Cloudy - 16.8 1013.4 0.0
26/10:03am W 14 18 - - - - 10 Partly cloudy - 16.0 1013.6 0.0
26/10:00am W 14 18 - - - - 10 Partly cloudy - 15.7 1013.6 0.0
26/09:39am WNW 13 18 - - - - 10 Partly cloudy - 15.4 1013.5 0.0
26/09:30am WNW 13 17 - - - - 6 Partly cloudy - 15.3 1013.3 0.0
26/09:25am WNW 14 17 - - - - 4 Partly cloudy - 15.3 1013.1 0.0
26/09:18am WNW 14 19 - - - - 5 Partly cloudy - 15.1 1013.1 0.0
26/09:08am WNW 14 19 - - - - 10 Partly cloudy - 15.3 1013.1 0.0
26/09:00am WNW 13 17 - - - - 10 Cloudy - 15.1 1013.0 0.4
26/08:46am W 13 18 - - - - 9 Partly cloudy - 14.9 1012.9 0.4
26/08:30am W 14 21 - - - - 10 Partly cloudy - 14.8 1012.7 0.4
26/08:00am WNW 6 8 - - - - 10 Cloudy - 15.7 1012.1 0.4
26/07:36am W 7 10 - - - - 10 Cloudy - 15.2 1011.8 0.4
26/07:30am W 7 10 - - - - 10 Cloudy - 15.0 1011.8 0.4
26/07:12am W 7 9 - - - - 10 Partly cloudy - 15.0 1011.6 0.4
26/07:04am W 6 8 - - - - 10 Partly cloudy - 14.9 1011.6 0.4
26/07:00am W 6 8 - - - - 10 Partly cloudy - 14.8 1011.6 0.4
26/06:34am W 8 10 - - - - 10 Partly cloudy - 14.7 1011.4 0.4
26/06:30am W 8 11 - - - - 10 Partly cloudy - 14.7 1011.3 0.4
26/06:00am NW 14 17 - - - - 4 Mostly cloudy - 16.0 1011.2 0.2
26/05:55am NW 14 18 - - - - 5 Cloudy - 16.1 1011.4 0.2
26/05:50am NW 14 18 - - - - 10 Cloudy - 16.1 1011.4 0.2
26/05:30am NW 13 18 - - - - 9 Cloudy - 16.1 1011.2 0.2
26/05:00am NW 14 17 - - - - 3 Cloudy - 16.2 1011.2 0.2
26/04:34am NW 11 16 - - - - 5 Cloudy - 16.2 1011.2 0.2
26/04:30am NW 11 15 - - - - 6 Cloudy - 16.2 1011.2 0.2
26/04:00am NW 10 12 - - - - 10 Partly cloudy - 16.1 1011.3 0.2
26/03:30am NW 12 16 - - - - 10 Cloudy - 16.1 1011.5 0.2
26/03:00am NW 13 15 - - - - 10 Cloudy - 16.0 1011.5 0.2
26/02:31am NW 11 14 - - - - 10 Cloudy - 16.2 1011.7 0.2
26/02:30am NW 11 13 - - - - 10 Partly cloudy - 16.2 1011.7 0.2
26/02:14am WNW 12 17 - - - - 5 Partly cloudy - 16.3 1011.7 0.2
26/02:08am WNW 13 17 - - - - 10 Partly cloudy - 16.3 1011.8 0.2
26/02:00am NW 13 16 - - - - 6 Partly cloudy - 16.3 1011.7 0.2
26/01:54am NW 13 16 - - - - 5 Partly cloudy - 16.5 1011.8 0.2
26/01:42am NW 13 15 - - - - 10 Partly cloudy - 16.6 1012.0 0.2
26/01:31am WNW 12 16 - - - - 5 Partly cloudy - 16.6 1012.1 0.2
26/01:30am WNW 12 15 - - - - 6 Partly cloudy - 16.6 1012.1 0.2
26/01:00am NW 13 16 - - - - 10 Cloudy - 16.7 1012.3 0.2
26/12:30am NW 13 16 - - - - 10 Cloudy - 16.7 1012.5 0.2

Other formats

Comma delimited format used in spreadsheet applications
http://www.bom.gov.au/fwo/IDT60701/IDT60701.94850.axf

JavaScript Object Notation format (JSON) in row-major order
http://www.bom.gov.au/fwo/IDT60701/IDT60701.94850.json

Data quality

Most of these data are generated automatically and are frequently updated. Quality checks on data are not normally performed. It is possible for incorrect values to appear. Refer to information at About Latest Weather Observations and please check the disclaimer before using these data.